SWA2447 KMCO-KPBI

Flight info

Callsign SWA2447
Flight time N/A
Altitude 25000
Route DDANY3 BORRD CPTAN3
Aircraft B737/M-SADE2E3GIJ4RWZ/LB1D1

Departure

Time 2026-04-26 23:02
Airport Orlando International Airport (KMCO)

Arrival

Time N/A
Airport Palm Beach International Airport (KPBI)
Time Latitude Longitude Altitude Speed Heading
2026-04-26 22:45 28.43358 -81.30014 100 ft 0 kts 341°
2026-04-26 22:54 28.43346 -81.30009 99 ft 3 kts 343°
2026-04-26 22:55 28.43326 -81.30003 98 ft 3 kts 348°
2026-04-26 22:55 28.43306 -81.30000 98 ft 3 kts
2026-04-26 22:55 28.43289 -81.30004 100 ft 3 kts 43°
2026-04-26 22:55 28.43283 -81.30012 100 ft 0 kts 71°
2026-04-26 22:58 28.43286 -81.30002 100 ft 4 kts 71°
2026-04-26 22:59 28.43309 -81.29926 98 ft 15 kts 68°
2026-04-26 22:59 28.43343 -81.29880 100 ft 7 kts 23°
2026-04-26 22:59 28.43392 -81.29878 100 ft 7 kts
2026-04-26 22:59 28.43448 -81.29888 99 ft 11 kts 350°
2026-04-26 23:00 28.43528 -81.29882 100 ft 12 kts 27°
2026-04-26 23:00 28.43550 -81.29798 103 ft 12 kts 88°
2026-04-26 23:00 28.43550 -81.29685 98 ft 16 kts 89°
2026-04-26 23:00 28.43532 -81.29593 102 ft 12 kts 150°
2026-04-26 23:01 28.43450 -81.29587 105 ft 14 kts 179°
2026-04-26 23:01 28.43353 -81.29585 107 ft 0 kts 180°
2026-04-26 23:01 28.43262 -81.29586 107 ft 44 kts 180°
2026-04-26 23:01 28.42714 -81.29580 100 ft 112 kts 178°
2026-04-26 23:02 28.41758 -81.29564 137 ft 157 kts 182°
2026-04-26 23:02 28.40651 -81.29567 622 ft 161 kts 184°
2026-04-26 23:02 28.39524 -81.29582 1181 ft 163 kts 183°
2026-04-26 23:02 28.38331 -81.29594 1619 ft 187 kts 182°
2026-04-26 23:03 28.36943 -81.29439 2035 ft 212 kts 172°
2026-04-26 23:03 28.35527 -81.28889 2708 ft 222 kts 149°
2026-04-26 23:03 28.34297 -81.27753 3282 ft 234 kts 140°
2026-04-26 23:03 28.33117 -81.26404 3889 ft 246 kts 131°
2026-04-26 23:04 28.32099 -81.24840 4771 ft 248 kts 121°
2026-04-26 23:04 28.31238 -81.23147 5677 ft 250 kts 119°
2026-04-26 23:04 28.30393 -81.21400 6521 ft 254 kts 118°
2026-04-26 23:04 28.29551 -81.19654 7397 ft 257 kts 119°
2026-04-26 23:05 28.28679 -81.17861 8307 ft 261 kts 119°
2026-04-26 23:05 28.27784 -81.16034 9129 ft 274 kts 119°
2026-04-26 23:05 28.26804 -81.14047 9591 ft 298 kts 119°
2026-04-26 23:05 28.25776 -81.11975 10434 ft 305 kts 120°
2026-04-26 23:06 28.24712 -81.09843 11071 ft 321 kts 119°
2026-04-26 23:06 28.23560 -81.07536 11282 ft 351 kts 119°
2026-04-26 23:06 28.22315 -81.05050 11644 ft 371 kts 120°
2026-04-26 23:06 28.21021 -81.02469 12335 ft 381 kts 120°
2026-04-26 23:07 28.19700 -80.99841 13150 ft 387 kts 120°
2026-04-26 23:07 28.18819 -80.98091 13771 ft 387 kts 120°
2026-04-26 23:07 28.17026 -80.94529 14694 ft 397 kts 120°
2026-04-26 23:07 28.15653 -80.91804 15537 ft 399 kts 120°
2026-04-26 23:08 28.14270 -80.89064 16372 ft 403 kts 120°
2026-04-26 23:08 28.12872 -80.86293 17147 ft 408 kts 120°
2026-04-26 23:08 28.11454 -80.83486 17878 ft 414 kts 120°
2026-04-26 23:08 28.10017 -80.80642 18552 ft 419 kts 120°
2026-04-26 23:09 28.08562 -80.77766 19216 ft 422 kts 120°
2026-04-26 23:09 28.07097 -80.74871 19909 ft 425 kts 121°
2026-04-26 23:09 28.05640 -80.71994 20570 ft 429 kts 121°
2026-04-26 23:09 28.04152 -80.69057 21227 ft 432 kts 121°
2026-04-26 23:10 28.02650 -80.66095 21878 ft 436 kts 121°
2026-04-26 23:10 28.01135 -80.63108 22504 ft 439 kts 121°
2026-04-26 23:10 27.99605 -80.60096 23108 ft 443 kts 121°
2026-04-26 23:10 27.98063 -80.57060 23651 ft 447 kts 121°
2026-04-26 23:11 27.96533 -80.54046 23865 ft 437 kts 121°
2026-04-26 23:11 27.94995 -80.51024 23913 ft 448 kts 121°
2026-04-26 23:11 27.93457 -80.48029 23891 ft 440 kts 123°
2026-04-26 23:11 27.91519 -80.45472 23912 ft 420 kts 142°
2026-04-26 23:12 27.89124 -80.43660 23361 ft 417 kts 159°
2026-04-26 23:12 27.86427 -80.42518 22826 ft 413 kts 163°
2026-04-26 23:12 27.83711 -80.41465 22239 ft 411 kts 163°
2026-04-26 23:12 27.81024 -80.40432 21696 ft 405 kts 163°
2026-04-26 23:13 27.78377 -80.39401 21170 ft 400 kts 163°
2026-04-26 23:13 27.75770 -80.38371 20657 ft 396 kts 163°
2026-04-26 23:13 27.73179 -80.37337 20157 ft 393 kts 163°
2026-04-26 23:13 27.70609 -80.36309 19649 ft 391 kts 162°
2026-04-26 23:14 27.68089 -80.35300 19166 ft 389 kts 162°
2026-04-26 23:14 27.65548 -80.34255 18681 ft 388 kts 160°
2026-04-26 23:14 27.63084 -80.33024 18167 ft 388 kts 156°
2026-04-26 23:14 27.60659 -80.31705 17603 ft 386 kts 156°
2026-04-26 23:15 27.58255 -80.30383 17089 ft 383 kts 156°
2026-04-26 23:15 27.55866 -80.29086 16583 ft 380 kts 156°
2026-04-26 23:15 27.53489 -80.27817 16090 ft 376 kts 156°
2026-04-26 23:15 27.51131 -80.26572 15606 ft 373 kts 156°
2026-04-26 23:16 27.48793 -80.25340 15123 ft 369 kts 156°
2026-04-26 23:16 27.46508 -80.24137 14660 ft 366 kts 157°
2026-04-26 23:16 27.44205 -80.22926 14189 ft 364 kts 157°
2026-04-26 23:16 27.41919 -80.21723 13696 ft 362 kts 157°
2026-04-26 23:17 27.39649 -80.20528 13177 ft 359 kts 157°
2026-04-26 23:17 27.37397 -80.19344 12693 ft 355 kts 156°
2026-04-26 23:17 27.35169 -80.18172 12221 ft 351 kts 157°
2026-04-26 23:17 27.32971 -80.17016 11767 ft 348 kts 157°
2026-04-26 23:18 27.30784 -80.15867 11315 ft 344 kts 157°
2026-04-26 23:18 27.28626 -80.14734 10875 ft 341 kts 157°
2026-04-26 23:18 27.26514 -80.13625 10439 ft 337 kts 157°
2026-04-26 23:18 27.24347 -80.12761 10152 ft 324 kts 174°
2026-04-26 23:19 27.22162 -80.12844 9910 ft 308 kts 196°